Regional Weather Roundup
Issued by NWS

Home | Current Version | Previous Version | Text Only | Print | Product List | Glossary Off
Versions: 1 2 3 4 5 6 7 8 9 10 11 12 13 14 15 16 17 18 19 20 21 22 23 24 25 26 27 28 29 30 31 32 33 34 35 36 37 38 39 40 41 42 43 44 45 46 47 48 49

000
ASUS45 KCYS 270910
RWRWY

WYOMING REGIONAL WEATHER ROUNDUP
NATIONAL WEATHER SERVICE CHEYENNE WY
200 AM MST THU NOV 27 2014

NOTE:  "FAIR" INDICATES FEW OR NO CLOUDS BELOW 12,000 FEET
WITH NO SIGNIFICANT WEATHER AND/OR OBSTRUCTIONS TO VISIBILITY.

WYZ001-271000-
YELLOWSTONE NATIONAL PARK

CITY           SKY/WX    TMP DP  RH WIND       PRES   REMARKS
LK YELLOWSTONE   N/A     31  27  85 CALM      30.26F
W YELLOWSTONE  NOT AVBL

$$
WYZ002>013-054>058-071-098>099-271000-
NORTHERN WYOMING

CITY           SKY/WX    TMP DP  RH WIND       PRES   REMARKS
JACKSON        CLOUDY    37  30  75 SW8       30.26S WCI  31
CODY           CLOUDY    19  19 100 CALM      30.08S
GREYBULL       CLOUDY    22  21  96 SW3       30.15F
WORLAND        FOG       21  19  92 CALM      30.14F VSB 1/4
SHERIDAN       FOG       23  21  92 CALM      30.05F VSB 1/4
BUFFALO        MOCLDY    27  20  75 VRB5      30.05F WCI  22
GILLETTE       PTCLDY    23  19  85 S9        30.08F WCI  13
HULETT           N/A    N/A N/A N/A MISG        N/A
NEWCASTLE      FAIR      27  21  80 SE6       30.17F WCI  20

$$
WYZ014>020-022>026-101>103-271000-
CENTRAL WYOMING

CITY           SKY/WX    TMP DP  RH WIND       PRES   REMARKS
BIG PINEY      PTCLDY   N/A N/A N/A NE3       30.33F
PINEDALE       MOSUNNY   16  16 100 W3        30.34S
DUBOIS         FAIR      36  25  64 NW16      30.22S WCI  26
LANDER         PTCLDY    35  24  64 SW12      30.17S WCI  27
RIVERTON       PTCLDY    34  25  69 W7        30.18F WCI  28
CASPER         CLOUDY    38  27  64 SW9       30.16F WCI  31
DOUGLAS        CLOUDY    20  17  88 CALM      30.17F

$$
WYZ021-027>030-104>119-271000-
SOUTHERN WYOMING

CITY           SKY/WX    TMP DP  RH WIND       PRES   REMARKS
EVANSTON       CLEAR     34  23  64 SW17      30.36F WCI  23
FORT BRIDGER   FAIR      37  22  53 W9        30.36F WCI  31
ROCK SPRINGS   CLEAR     34  20  56 SW8       30.34F WCI  27
DIXON          FAIR      31  26  81 CALM      30.43R
RAWLINS        CLOUDY    39  22  50 W24G32    30.30R WCI  28
SARATOGA       FAIR      41  21  45 MISG      30.32S
LARAMIE        PTCLDY    35  21  56 SW3       30.28S
CHEYENNE       MOCLDY    43  24  47 W22G32    30.22S
TORRINGTON     CLOUDY    21  19  92 CALM      30.20S
PINE BLUFFS    FAIR      21  19  93 S7        30.23S WCI  13

$$


USA.gov is the U.S. government's official web portal to all federal, state and local government web resources and services.